Retour au catalogue

SL-16 DEB

ActifLEO
NORAD 22398·DEBRIS·🇷🇺 Russia

Lancé Dec 25, 1992 depuis Baikonur Cosmodrome

Loading…

Prochains Passages (prochaines 24 heures)

TLE

FraisSource: Space-Track

Époque: Sep 13, 2026, 23:36 UTC

1 22398U 92093CP  26256.98376782  .00000752  00000-0  43844-3 0  9998
2 22398  70.9504 111.3650 0107586 200.9856 158.6833 14.08879175721582

Suivez SL-16 DEB en temps réel avec AllMySat

Download on the App Store